Dewpoint
17 22 18 18 19 19 17 15 17 20 21 21 20 20 20 17 16 17 20 21 23 24 28 32 32 30 32 31 29 29 30 32 33 32 33 32 32 34 36 36 40 41 39 35
17 21 19 19 19 19 17 20 21 21 24 24 22 20 20 17 17 19 22 23 24 24 26 29 32 32 30 30 31 30 30 31 32 32 33 32 31 32 33 35 37 39 39 36
16 20 19 18 20 19 18 22 22 23 25 26 22 18 16 18 18 22 23 23 24 24 25 26 28 31 33 33 32 32 32 31 33 32 32 33 34 35 32 32 36 37 36 37
19 20 16 17 20 21 18 24 24 25 25 22 24 18 16 17 17 21 22 25 26 27 28 29 27 29 33 34 35 34 33 34 35 35 31 30 30 30 29 29 30 35 37 37
20 15 14 20 20 22 22 25 26 26 26 25 21 21 15 17 17 19 23 26 27 29 29 28 28 29 30 34 37 36 35 35 35 36 35 32 30 32 31 31 31 34 38 39
18 21 22 20 25 26 27 28 28 30 25 21 23 20 19 18 16 19 25 27 28 29 29 31 32 33 33 36 37 38 36 35 36 36 36 35 33 31 32 33 33 34 33 32
27 22 24 27 25 28 27 28 25 18 22 22 24 19 18 22 20 22 23 25 26 28 30 30 30 32 35 37 37 38 39 39 38 38 37 36 36 34 32 32 33 31 29 29
27 25 27 28 27 26 27 27 27 22 23 23 25 21 21 22 21 22 23 25 29 29 31 32 33 36 37 37 37 38 37 37 38 38 38 38 39 38 34 35 34 30 27 28
30 27 31 27 28 28 27 28 29 26 29 25 26 26 22 26 28 29 29 30 31 32 33 33 35 37 38 38 37 36 36 35 35 35 35 36 39 36 33 27 27 26 26 27
32 30 33 33 32 30 28 30 27 28 25 24 23 23 23 27 27 30 30 30 32 33 33 35 35 37 37 38 37 38 37 35 32 32 30 31 28 26 27 27 24 22 25 26
34 33 31 32 31 30 27 27 29 30 29 29 27 27 29 28 30 31 29 32 32 32 32 33 34 38 38 38 39 39 37 37 29 31 30 29 27 24 24 22 23 24 25 25
33 32 30 29 32 32 29 30 29 28 31 30 30 29 31 31 31 30 33 32 33 31 33 34 37 38 38 39 40 39 38 32 27 31 28 26 24 21 20 23 25 26 26 27
33 30 28 25 29 32 31 31 32 31 30 28 28 28 31 32 32 32 31 33 34 34 36 39 39 39 38 38 39 39 38 28 28 26 24 22 21 21 24 26 25 25 25 26
34 32 30 26 29 32 31 31 31 31 28 27 27 28 27 27 27 30 33 34 34 36 38 39 39 39 38 38 39 39 31 29 30 25 23 22 23 23 27 27 27 26 26 25
34 32 33 33 33 33 32 31 31 30 29 27 27 27 27 26 29 32 35 36 36 38 39 39 39 39 38 39 39 34 31 32 31 25 25 30 32 31 29 29 26 27 27 26
38 33 35 33 34 34 31 31 30 30 29 29 27 26 28 26 35 36 36 37 38 38 39 38 39 39 39 39 36 35 35 35 36 36 37 37 35 34 32 27 27 27 25 25
36 34 34 30 34 32 29 26 28 28 27 28 27 29 36 35 36 37 37 38 39 39 39 39 39 39 39 39 36 36 37 38 38 38 37 37 37 36 34 30 25 24 22 20
33 33 34 31 32 25 27 29 27 29 29 31 35 37 38 39 40 39 38 39 38 38 40 39 38 38 38 37 37 38 39 40 37 36 36 36 37 35 25 23 22 20 18 17
38 35 32 30 29 29 30 29 29 27 27 37 36 36 37 40 39 38 39 40 39 39 40 38 38 38 37 36 37 38 38 38 38 36 33 25 23 21 20 19 17 16 15 15
38 37 31 30 26 23 24 29 34 32 28 37 39 40 39 40 34 34 39 40 39 40 39 37 37 36 36 36 37 35 31 34 21 19 20 21 20 19 16 16 15 16 16 16
29 32 29 29 28 28 30 31 37 27 30 38 42 41 41 38 38 40 38 38 38 37 36 36 35 35 36 33 29 24 15 17 19 21 21 20 19 17 17 17 16 14 16 18
28 27 29 31 29 24 33 33 30 33 38 38 39 40 38 40 40 37 35 36 36 35 35 35 35 35 33 31 24 12 15 19 20 20 20 20 20 19 18 15 15 16 17 19
28 29 26 30 28 32 34 33 35 35 36 39 40 40 41 40 37 31 28 34 34 34 34 35 35 34 31 20 18 21 21 22 22 21 22 22 21 21 17 16 16 18 19 20
34 35 32 32 32 32 34 35 36 37 39 41 42 42 37 35 34 28 33 33 33 34 34 35 32 29 28 20 20 21 24 24 22 23 23 23 22 20 18 18 19 18 18 18
35 36 33 33 34 34 35 35 37 40 43 43 41 37 35 31 33 33 32 32 33 33 34 34 30 29 24 23 23 24 24 24 24 24 24 24 22 19 20 20 19 19 19 21
37 35 34 32 34 35 36 38 39 40 40 39 37 31 33 34 32 31 31 33 32 32 34 33 29 22 22 23 23 24 25 24 24 24 24 24 21 20 20 20 19 20 21 22
Wind_Speed
4 6 7 6 6 3 12 16 11 10 19 21 21 23 22 3 17 19 16 15 13 12 15 17 16 16 14 11 9 5 3 5 6 6 4 6 8 9 9 12 11 16 14 13
8 7 5 7 13 10 13 12 14 7 20 17 21 27 15 14 12 15 15 14 13 13 13 11 10 7 7 8 7 6 9 10 11 11 9 9 8 13 14 13 12 18 16 16
8 5 6 9 10 13 11 12 14 16 20 21 12 14 16 11 15 14 11 8 10 10 5 6 5 6 9 10 12 12 13 15 15 19 14 12 10 8 8 6 6 15 17 18
1 3 9 10 4 11 9 14 19 19 15 9 7 7 9 15 14 14 12 12 13 9 9 7 6 6 9 15 15 15 14 13 13 15 20 21 20 19 18 16 13 17 17 18
2 3 5 7 6 9 8 10 22 24 19 11 10 3 2 15 12 15 14 13 11 10 8 7 3 1 4 4 14 17 17 16 17 14 16 22 22 20 16 14 12 7 6 12
6 4 4 2 12 11 11 15 18 9 3 2 13 11 6 6 7 10 11 11 12 9 6 7 7 7 5 2 6 13 16 19 19 20 21 22 26 25 19 14 11 10 11 12
12 6 4 4 8 10 22 13 9 6 3 3 20 10 9 17 11 17 12 8 7 4 5 3 4 4 6 10 11 8 8 16 20 22 24 27 26 26 25 23 18 16 15 12
8 4 11 10 4 6 9 5 4 5 5 13 14 3 6 14 21 10 5 6 13 12 7 4 2 4 10 11 14 17 21 23 22 16 15 19 24 21 22 15 13 15 15 13
10 4 16 3 2 2 6 6 2 2 2 2 7 7 21 14 19 16 21 10 8 6 4 3 5 10 10 13 13 15 19 22 23 10 7 10 7 3 10 18 17 15 12 13
6 7 7 9 6 6 4 3 5 2 4 5 5 12 13 18 25 18 11 6 4 8 8 11 10 7 11 14 15 18 21 22 17 2 9 12 16 18 16 14 16 16 14 15
10 4 10 10 1 8 1 4 2 3 7 5 5 7 10 24 19 21 27 17 13 8 13 14 13 9 12 13 15 16 20 22 16 4 10 12 12 13 13 13 11 12 12 8
7 1 5 17 23 14 9 13 12 7 7 11 13 18 23 16 19 33 15 13 13 13 11 17 18 16 15 15 17 18 20 17 10 12 11 11 13 13 14 12 12 12 8 6
4 3 7 11 6 10 9 22 20 16 7 18 17 18 14 26 26 8 16 16 16 17 17 15 16 17 18 16 18 17 20 18 7 11 12 11 11 13 11 7 5 3 0 4
5 3 4 10 11 13 17 28 31 20 16 20 20 29 23 22 13 16 15 16 16 10 11 13 18 19 14 17 21 17 14 18 16 11 13 13 11 10 8 9 6 5 9 9
7 7 11 16 14 17 20 27 29 23 28 25 36 28 21 18 13 12 14 18 15 10 11 16 20 19 18 20 19 10 15 18 17 9 7 10 8 6 3 1 2 8 10 11
5 12 3 17 18 14 13 31 31 28 21 17 23 30 14 12 19 20 19 19 15 14 15 20 20 20 20 20 8 11 12 12 5 6 8 9 8 6 5 2 11 12 10 10
16 17 13 26 10 9 16 23 9 12 23 22 21 11 23 27 27 21 20 11 12 17 20 20 19 18 17 8 8 13 13 10 1 3 4 7 6 0 10 15 6 8 10 9
15 13 4 14 4 10 13 22 31 25 15 13 13 21 23 21 20 22 19 10 21 25 19 15 18 18 7 8 12 14 13 5 6 7 5 3 9 9 3 4 7 9 7 11
10 6 4 6 6 17 18 15 6 23 28 7 16 28 25 21 23 15 5 12 21 22 13 19 13 6 9 15 14 13 11 9 7 8 4 6 7 8 7 8 7 9 11 14
12 11 2 4 11 13 11 8 10 14 24 9 22 14 22 18 20 22 11 20 22 15 15 10 6 8 12 13 11 11 13 2 11 11 12 11 11 10 8 7 9 9 10 13
4 3 11 11 9 11 16 11 2 9 17 17 6 13 18 17 13 19 22 18 15 8 10 10 11 9 7 8 11 10 15 14 12 10 9 9 9 9 9 10 8 12 13 14
3 6 8 6 8 13 1 6 13 14 9 15 9 7 21 21 14 19 20 19 7 9 11 13 12 8 8 8 8 14 13 8 9 8 8 8 10 10 9 10 13 13 13 9
11 14 11 13 12 10 19 22 19 26 29 17 12 12 11 20 20 17 15 10 9 10 11 9 7 9 7 6 9 8 4 8 10 11 10 11 11 11 9 10 14 13 9 11
6 13 21 19 18 28 23 31 29 24 18 14 9 13 15 17 16 13 12 11 11 11 11 7 4 5 4 7 7 8 7 9 9 10 12 12 9 11 11 12 11 8 11 12
10 7 17 25 30 30 25 21 21 18 9 10 9 10 13 7 8 9 12 12 10 10 9 8 6 8 2 7 6 4 5 6 8 10 10 9 12 11 13 11 10 9 11 10
13 26 19 33 29 25 32 16 14 8 10 14 12 9 7 7 5 10 14 11 10 12 9 10 8 7 5 5 3 3 3 4 5 8 10 11 11 12 11 11 11 10 13 12
Wind_Direction
291 44 60 9 316 291 348 326 333 344 349 348 314 297 287 321 75 82 89 89 79 65 56 60 101 117 111 113 118 131 158 213 208 211 225 243 247 247 248 229 200 191 188 197
2 89 30 322 318 32 355 346 357 339 337 325 305 309 271 123 106 106 108 97 89 71 58 78 107 120 140 144 152 190 222 229 220 210 222 218 228 240 236 239 212 196 190 201
346 63 10 343 10 25 350 20 348 324 321 312 2 331 117 115 117 109 116 132 134 135 133 110 108 141 167 179 195 205 224 233 227 221 221 233 244 252 235 238 228 208 199 205
272 81 30 340 56 20 331 343 325 307 318 310 343 286 283 146 155 156 166 147 138 133 116 91 157 186 188 214 207 212 226 239 248 231 224 227 234 237 236 238 232 219 222 216
328 39 7 30 350 334 265 306 296 287 272 283 314 295 356 163 180 180 167 139 124 108 96 79 48 127 230 203 212 215 226 238 249 248 229 231 236 239 235 242 248 258 239 217
257 129 78 9 320 319 323 338 315 337 170 86 4 10 291 327 151 169 121 122 114 104 83 72 57 73 62 74 225 229 237 247 252 250 246 234 233 235 223 211 186 150 116 91
330 123 108 24 345 356 357 1 358 29 22 232 2 340 267 326 121 115 99 104 116 97 105 74 5 331 27 35 20 347 285 275 274 265 256 248 239 231 222 212 186 164 150 135
349 348 16 6 65 334 332 17 54 330 323 310 315 278 326 39 79 87 141 83 69 30 1 356 198 99 76 39 7 356 354 335 316 308 291 275 264 244 229 207 173 146 131 123
353 301 341 87 26 55 336 31 304 265 342 277 279 309 335 90 6 11 79 66 56 11 17 318 98 100 59 32 26 7 352 335 312 322 351 25 27 86 118 110 109 104 98 97
346 311 315 341 317 259 191 347 11 21 299 274 271 306 248 338 341 341 346 264 123 8 30 49 53 48 29 36 13 358 345 320 303 110 110 96 92 91 96 102 107 101 85 66
31 39 306 344 79 340 85 342 351 349 293 273 294 257 318 312 310 336 331 65 63 60 55 36 9 41 46 13 0 343 335 322 315 145 128 109 107 109 107 104 95 83 73 75
7 273 302 292 282 274 50 357 346 339 291 261 265 270 277 288 323 307 349 59 47 34 21 29 42 27 5 351 346 339 330 330 329 147 127 118 121 118 113 102 89 79 69 10
20 13 333 345 44 8 1 330 327 321 294 270 277 273 318 298 291 5 66 42 29 13 41 22 12 356 337 338 332 332 329 342 323 157 141 141 135 132 126 113 99 59 315 250
122 208 205 249 272 310 317 311 306 301 284 286 262 288 303 300 325 55 38 22 2 37 28 11 348 323 321 333 326 331 346 344 323 185 167 165 165 141 96 103 45 342 285 272
175 248 236 263 279 292 292 293 288 292 290 290 291 291 301 339 56 33 18 2 1 28 9 344 328 326 324 326 321 358 350 346 327 221 148 104 95 92 74 72 175 268 260 270
301 271 247 281 283 281 292 283 286 288 282 288 297 303 307 360 18 7 2 359 2 352 336 328 317 318 317 315 329 335 338 328 24 70 99 93 72 37 32 320 277 268 284 298
267 269 267 281 295 338 304 289 305 289 309 298 297 331 10 352 346 345 342 348 339 325 315 315 313 311 310 328 337 325 317 311 23 110 100 55 38 291 228 239 255 301 306 316
259 272 246 281 319 271 252 314 303 296 291 329 13 359 352 351 340 326 332 333 325 314 305 311 310 306 337 335 323 316 315 354 38 327 294 210 225 241 209 4 323 321 332 323
200 162 256 272 250 275 285 273 317 318 310 4 358 337 327 327 314 318 307 309 296 292 295 300 313 326 333 327 323 310 302 275 260 284 292 87 81 38 6 344 340 326 317 315
86 103 167 275 286 298 251 329 341 327 285 356 351 355 319 304 310 315 316 303 296 287 290 312 335 339 345 328 306 303 318 349 85 58 43 30 21 7 3 351 335 322 325 316
293 317 284 275 272 266 272 281 342 324 301 304 262 290 284 292 287 300 297 298 310 328 25 5 339 332 326 18 19 25 69 60 47 33 23 11 8 7 3 349 351 330 322 315
258 291 253 228 246 275 305 332 337 296 293 306 303 311 307 299 305 295 308 304 18 26 7 356 337 340 35 1 354 89 67 44 22 4 3 12 5 357 350 349 334 328 327 3
260 220 258 223 243 264 313 304 308 306 301 297 289 328 352 320 311 311 328 30 47 15 353 344 360 34 351 63 83 46 50 26 4 4 2 352 341 339 350 346 327 330 9 18
238 270 270 288 272 283 306 302 295 293 292 331 13 335 329 288 296 354 19 29 3 348 334 327 349 14 348 121 97 81 47 15 3 354 344 336 352 346 341 334 340 24 14 349
216 242 266 265 280 287 282 279 296 318 358 349 331 301 289 311 32 13 1 356 344 325 313 309 330 307 158 106 82 63 52 28 356 341 335 343 340 337 331 343 4 2 343 338
211 253 250 268 273 279 282 323 322 347 346 280 282 304 60 72 14 357 354 333 313 307 348 342 336 89 102 94 70 105 96 32 357 336 328 324 327 336 346 345 344 333 325 341